Frenchville, ME

4:46 AM EDT on April 25, 2018 (GMT -0400)
Northern Aroostook Regional

Weather History for KFVE - July, 2014

Change the Weather History Date:

Wednesday, July 16, 2014

  Actual Average Record
Temperature  
Mean Temperature 69 °F 65 °F  
Max Temperature 74 °F 74 °F 85 °F (2013)
Min Temperature 63 °F 55 °F 44 °F (2015)
Degree Days  
Heating Degree Days 0    
Month to date heating degree days 31  
Since 1 July heating degree days 31  
Cooling Degree Days 4    
Month to date cooling degree days 55  
Year to date cooling degree days 82  
Growing Degree Days 18 (Base 50)    
Moisture  
Dew Point 66 °F    
Average Humidity 94    
Maximum Humidity 100    
Minimum Humidity 78    
Precipitation  
Precipitation 0.89 in 0.13 in 0.89 in (2014)
Month to date precipitation 3.21 2.48  
Year to date precipitation 17.69 16.23  
Sea Level Pressure  
Sea Level Pressure 29.76 in    
Wind  
Wind Speed 7 mph (South)    
Max Wind Speed 17 mph    
Max Gust Speed 22 mph    
Visibility 6 miles    
Events Fog , Rain    
T = Trace of Precipitation, MM = Missing Value Source: NWS Daily Summary

Daily Weather History Graph

Daily Weather History Graph

Search for Another Location

Airport or City:

Astronomy

Jul. 16, 2014 Rise Set
Actual Time 4:53 AM EDT 8:24 PM EDT
Civil Twilight 4:14 AM EDT 9:02 PM EDT
Nautical Twilight 3:23 AM EDT 9:53 PM EDT
Astronomical Twilight 2:15 AM EDT 11:01 PM EDT
Moon 10:41 PM EDT (7/16) 10:16 AM EDT (7/16)
Length of Visible Light 16h 47m
Length of Day
15h 31m
Waning Gibbous, 76% of the Moon is Illuminated
Jul 16
Waning Gibbous
Jul 18
Last Quarter
Jul 26
New
Aug 3
First Quarter
Aug 10
Full

Hourly Weather History & Observations

Time (EDT) Temp. Dew Point Humidity Pressure Visibility Wind Dir Wind Speed Gust Speed Precip Events Conditions
12:23 AM 68.0 °F 66.9 °F 96% 29.75 in 10.0 mi SSE 10.4 mph - N/A   Overcast
12:53 AM 68.0 °F 66.9 °F 96% 29.74 in 10.0 mi South 9.2 mph - N/A   Overcast
1:00 AM 68.0 °F 66.9 °F 96% 29.77 in 10.0 mi South 6.9 mph - N/A   Overcast
1:53 AM 68.0 °F 66.9 °F 96% 29.75 in 10.0 mi South 5.8 mph - N/A   Overcast
2:53 AM 68.0 °F 66.9 °F 96% 29.75 in 10.0 mi SSE 6.9 mph - N/A   Overcast
3:53 AM 66.9 °F 66.0 °F 97% 29.73 in 10.0 mi South 6.9 mph - N/A   Overcast
4:53 AM 66.9 °F 66.0 °F 97% 29.75 in 5.0 mi South 8.1 mph - 0.03 in Rain Light Rain
5:10 AM 66.9 °F 66.0 °F 97% 29.77 in 1.8 mi South 6.9 mph - 0.00 in Rain Light Rain
5:15 AM 66.9 °F 66.0 °F 97% 29.78 in 1.2 mi South 6.9 mph - 0.01 in Rain Rain
5:28 AM 66.9 °F 66.0 °F 97% 29.77 in 0.8 mi SSE 6.9 mph - 0.03 in Rain Rain
5:38 AM 66.9 °F 66.0 °F 97% 29.77 in 1.5 mi South 8.1 mph - 0.05 in Rain Light Rain
5:53 AM 66.9 °F 66.0 °F 97% 29.75 in 2.0 mi SSE 5.8 mph - 0.06 in Rain Light Rain
6:00 AM 66.9 °F 66.0 °F 97% 29.75 in 1.5 mi SE 4.6 mph - 0.00 in Rain Light Rain
6:05 AM 66.9 °F 66.0 °F 97% 29.75 in 2.5 mi SE 5.8 mph - 0.01 in Rain Light Rain
6:08 AM 66.9 °F 66.0 °F 97% 29.74 in 4.0 mi SSE 4.6 mph - 0.01 in Rain Light Rain
6:17 AM 66.9 °F 66.0 °F 97% 29.74 in 8.0 mi SE 5.8 mph - 0.01 in Rain Light Rain
6:25 AM 66.9 °F 66.0 °F 97% 29.74 in 6.0 mi ESE 3.5 mph - 0.01 in Rain Light Rain
6:44 AM 66.9 °F 66.0 °F 97% 29.75 in 10.0 mi South 4.6 mph - 0.02 in Rain Light Rain
6:53 AM 66.9 °F 66.0 °F 97% 29.73 in 10.0 mi South 3.5 mph - 0.02 in Rain Light Rain
7:07 AM 66.9 °F 66.0 °F 97% 29.75 in 10.0 mi SSE 5.8 mph - 0.00 in   Overcast
7:24 AM 66.9 °F 66.0 °F 97% 29.77 in 1.8 mi SSE 4.6 mph - 0.00 in Rain Light Rain
7:28 AM 66.9 °F 66.0 °F 97% 29.77 in 1.2 mi SSE 5.8 mph - 0.00 in Rain Light Rain
7:31 AM 66.9 °F 66.0 °F 97% 29.77 in 1.8 mi South 6.9 mph - 0.00 in Rain Light Rain
7:34 AM 66.9 °F 66.0 °F 97% 29.78 in 3.0 mi South 5.8 mph - 0.00 in Rain Light Rain
7:48 AM 66.2 °F 66.2 °F 100% 29.78 in 1.8 mi South 4.6 mph - 0.00 in Rain Light Rain
7:50 AM 66.2 °F 66.2 °F 100% 29.78 in 1.2 mi South 4.6 mph - 0.00 in Rain Light Rain
7:53 AM 66.9 °F 66.9 °F 100% 29.76 in 1.0 mi Variable 4.6 mph - 0.00 in Rain Light Rain
7:58 AM 66.9 °F 66.9 °F 100% 29.77 in 1.8 mi South 4.6 mph - 0.00 in Rain Light Rain
8:00 AM 66.9 °F 66.9 °F 100% 29.77 in 3.0 mi South 5.8 mph - 0.00 in Rain Light Rain
8:53 AM 68.0 °F 66.9 °F 96% 29.77 in 8.0 mi South 6.9 mph - 0.02 in Rain Light Rain
9:38 AM 68.0 °F 66.9 °F 96% 29.79 in 9.0 mi South 5.8 mph - 0.02 in Rain Light Rain
9:47 AM 68.0 °F 66.2 °F 94% 29.78 in 2.5 mi South 5.8 mph - 0.05 in Rain Rain
9:51 AM 68.0 °F 66.2 °F 94% 29.78 in 1.5 mi South 5.8 mph - 0.10 in Rain Heavy Rain
9:53 AM 68.0 °F 66.9 °F 96% 29.77 in 1.2 mi South 5.8 mph - 0.12 in Rain Heavy Rain
10:08 AM 68.0 °F 66.9 °F 96% 29.78 in 1.8 mi Calm Calm - 0.04 in Rain Light Rain
10:11 AM 68.0 °F 66.9 °F 96% 29.79 in 3.0 mi West 6.9 mph - 0.06 in Rain Rain
10:53 AM 68.0 °F 66.9 °F 96% 29.76 in 10.0 mi SSE 10.4 mph - 0.06 in   Mostly Cloudy
11:19 AM 68.0 °F 66.0 °F 93% 29.77 in 10.0 mi SSE 8.1 mph - 0.00 in Rain Light Rain
11:34 AM 70.0 °F 66.9 °F 90% 29.77 in 10.0 mi South 4.6 mph - 0.00 in   Mostly Cloudy
11:53 AM 70.0 °F 66.9 °F 90% 29.76 in 10.0 mi South 10.4 mph - 0.00 in   Overcast
12:20 PM 70.0 °F 66.9 °F 90% 29.76 in 10.0 mi SSE 10.4 mph - N/A   Mostly Cloudy
12:50 PM 69.8 °F 66.2 °F 88% 29.78 in 10.0 mi SSW 9.2 mph - N/A   Mostly Cloudy
12:53 PM 70.0 °F 66.0 °F 87% 29.76 in 10.0 mi SW 8.1 mph - 0.00 in Rain Light Rain
1:12 PM 71.1 °F 66.0 °F 84% 29.77 in 10.0 mi SSW 9.2 mph - 0.00 in   Overcast
1:53 PM 70.0 °F 66.0 °F 87% 29.74 in 10.0 mi South 6.9 mph - 0.00 in Rain Light Rain
2:46 PM 72.0 °F 66.9 °F 84% 29.76 in 10.0 mi SSW 6.9 mph - 0.00 in   Mostly Cloudy
2:53 PM 73.0 °F 66.0 °F 79% 29.75 in 10.0 mi SSW 10.4 mph - 0.00 in   Mostly Cloudy
2:57 PM 72.0 °F 66.0 °F 81% 29.76 in 10.0 mi SSW 9.2 mph - N/A   Mostly Cloudy
3:34 PM 72.0 °F 66.0 °F 81% 29.76 in 10.0 mi South 6.9 mph - 0.01 in   Mostly Cloudy
3:53 PM 73.0 °F 66.0 °F 79% 29.75 in 10.0 mi South 6.9 mph - 0.01 in   Mostly Cloudy
4:53 PM 72.0 °F 66.0 °F 81% 29.74 in 10.0 mi South 6.9 mph - N/A   Partly Cloudy
5:53 PM 71.6 °F 64.4 °F 78% 29.75 in 10.0 mi SSE 5.8 mph - N/A   Clear
6:53 PM 71.1 °F 64.0 °F 78% 29.73 in 10.0 mi South 4.6 mph - N/A   Clear
7:20 PM 70.0 °F 64.0 °F 81% 29.74 in 10.0 mi SSE 4.6 mph - N/A   Scattered Clouds
7:53 PM 69.1 °F 64.0 °F 84% 29.74 in 10.0 mi South 4.6 mph - N/A   Overcast
8:40 PM 68.0 °F 66.0 °F 93% 29.75 in 7.0 mi SE 5.8 mph - 0.03 in Rain Light Rain
8:53 PM 66.0 °F 64.0 °F 93% 29.75 in 2.5 mi West 16.1 mph 21.9 mph 0.12 in Rain Heavy Rain
8:56 PM 64.9 °F 64.0 °F 97% 29.77 in 1.2 mi West 13.8 mph 21.9 mph 0.21 in Rain Heavy Rain
9:00 PM 64.9 °F 64.0 °F 97% 29.76 in 0.8 mi West 10.4 mph 21.9 mph 0.37 in Rain Heavy Rain
9:08 PM 64.9 °F 64.0 °F 97% 29.76 in 1.5 mi West 9.2 mph - 0.44 in Rain Light Rain
9:11 PM 64.9 °F 64.0 °F 97% 29.77 in 4.0 mi West 10.4 mph - 0.44 in Rain Light Rain
9:25 PM 64.9 °F 63.0 °F 93% 29.77 in 10.0 mi West 9.2 mph - 0.44 in Rain Light Rain
9:39 PM 64.9 °F 64.0 °F 97% 29.77 in 10.0 mi West 9.2 mph - 0.45 in   Overcast
9:53 PM 64.9 °F 63.0 °F 93% 29.76 in 10.0 mi West 6.9 mph - 0.45 in Rain Light Rain
10:15 PM 64.4 °F 64.4 °F 100% 29.77 in 1.2 mi SW 4.6 mph - N/A Rain Light Rain
10:24 PM 64.0 °F 64.0 °F 100% 29.77 in 0.5 mi SW 5.8 mph - 0.00 in Fog , Rain Light Rain
10:47 PM 64.4 °F 64.4 °F 100% 29.78 in 1.8 mi SW 5.8 mph - 0.00 in   Overcast
10:53 PM 64.0 °F 64.0 °F 100% 29.77 in 10.0 mi SW 5.8 mph - 0.00 in   Overcast
11:53 PM 64.0 °F 64.0 °F 100% 29.78 in 4.0 mi WSW 5.8 mph - 0.00 in   Overcast